Wind_Speed
10 10 10 9 9 8 8 8 8 8 8 8 9 10 10 11 12 13 13 12 12 12 12 13 13 13 14 14 15 16 17 18 18 19 19 19 20 19 19 18 19 19 20 20 20 19 17 16 16 16 15 15 14 13 12 11 11 12 13 13 13 13 14 15 17 20 22 23 24 25 25 25 26 25 25 25 25 24 24 24 23 21 20 19 17
12 12 11 11 10 10 10 9 9 9 9 9 10 10 11 12 13 13 13 13 13 14 14 15 15 15 16 17 18 18 19 20 20 20 20 19 19 19 19 18 17 17 16 17 17 17 16 16 15 15 16 16 15 14 14 13 13 13 14 14 14 14 14 14 15 17 19 21 23 25 25 24 24 24 24 25 25 25 25 24 24 24 23 22 21
15 15 13 13 12 11 11 10 11 11 10 10 10 11 12 13 14 14 14 14 14 14 15 15 16 17 18 19 20 20 20 20 20 20 19 18 17 17 18 18 17 16 14 13 12 12 12 13 13 14 14 15 15 14 14 13 12 13 14 14 14 14 14 13 13 14 16 17 18 19 21 22 23 22 21 21 21 22 23 23 22 22 22 23 23
18 17 15 14 14 13 12 12 12 11 10 10 10 11 13 14 15 15 15 14 14 14 15 16 17 18 18 19 19 19 18 17 15 15 15 14 13 13 14 14 14 14 12 10 9 8 8 9 9 10 12 14 15 13 12 11 11 12 13 14 14 14 14 13 12 12 14 15 14 13 15 18 19 19 19 19 18 19 19 20 20 20 20 20 22
19 18 18 17 16 15 15 14 12 10 10 11 12 13 14 15 15 14 14 14 14 15 16 17 17 18 18 18 18 16 15 14 13 12 12 12 12 12 12 11 11 11 10 9 10 9 8 8 8 10 13 15 14 11 11 11 12 13 13 13 13 14 14 14 13 12 13 14 13 13 13 12 13 16 19 19 17 16 17 18 19 20 20 19 20
21 20 20 20 19 18 16 14 11 11 11 12 12 13 14 14 13 13 13 14 15 16 16 17 17 18 19 19 18 16 14 13 13 13 13 12 13 13 13 12 11 10 9 7 9 11 12 12 13 15 15 15 13 11 12 13 14 14 15 14 14 14 15 15 15 14 14 15 14 14 13 13 16 18 20 21 20 17 16 17 18 19 19 19 19
23 22 23 22 20 18 16 13 12 12 12 12 12 12 12 12 12 12 12 13 15 16 16 16 16 17 17 16 14 13 12 11 11 11 12 12 13 13 13 13 12 10 9 8 7 9 12 14 15 16 16 14 13 14 14 15 15 15 15 15 15 15 15 15 16 15 16 16 15 15 15 15 16 16 17 20 23 22 19 16 17 19 18 18 17
25 25 24 22 20 17 15 12 12 12 12 11 11 11 11 11 10 11 12 13 15 15 15 14 15 15 14 11 10 9 10 9 9 9 10 10 11 11 12 12 11 10 9 7 7 8 10 12 14 15 15 15 14 15 15 15 14 14 15 15 16 15 15 15 15 15 16 16 16 16 15 14 13 13 14 15 19 24 25 21 19 19 20 21 20
27 27 25 22 19 17 15 12 10 11 12 12 12 11 11 10 10 11 12 12 13 13 13 13 13 13 11 8 7 7 7 8 7 8 8 8 9 10 11 11 10 10 10 8 8 8 9 10 11 12 13 13 13 13 13 13 13 13 13 14 15 14 14 14 15 14 14 15 15 15 14 14 14 14 14 14 16 21 26 26 23 21 21 20 19
28 28 26 22 19 18 15 11 10 11 13 13 12 11 11 10 10 11 11 11 12 12 12 12 12 11 8 6 6 6 6 6 6 6 7 7 8 8 9 10 10 10 10 10 9 9 9 9 10 11 11 12 12 12 12 12 12 12 13 13 13 13 14 14 14 13 13 13 14 13 13 12 12 13 13 14 15 17 21 24 23 22 22 20 16
30 29 27 23 21 19 14 11 12 14 15 14 12 11 10 10 11 11 11 11 11 11 11 11 11 10 8 7 7 7 6 6 7 7 6 7 7 8 9 10 10 10 10 11 11 11 11 10 9 9 10 11 12 12 13 13 12 12 13 13 13 14 14 13 13 13 12 12 11 10 10 9 9 11 12 11 13 15 18 21 20 19 22 22 18
31 30 29 26 23 20 14 15 17 16 15 14 12 11 10 10 11 12 12 11 11 11 11 11 10 9 7 7 7 8 8 8 8 9 8 8 8 8 8 8 9 10 10 10 11 11 11 11 10 10 9 9 9 10 10 11 11 12 12 12 12 12 12 11 11 10 9 8 8 8 8 10 10 12 12 11 13 15 17 19 20 19 21 23 21
33 32 31 28 25 20 16 19 21 16 14 13 12 10 8 9 10 11 11 11 10 10 10 10 9 8 6 6 7 8 8 9 9 10 10 9 9 9 9 9 9 10 10 11 11 11 12 13 13 12 11 9 8 8 8 8 9 9 9 9 9 9 9 7 6 7 6 5 5 7 8 9 9 10 10 10 11 13 13 15 17 17 18 21 21
36 34 32 29 26 21 17 20 21 16 13 12 11 9 7 7 8 8 9 9 9 9 9 9 8 7 6 6 6 7 8 8 8 9 10 10 10 10 10 9 10 10 11 11 11 11 12 13 13 13 12 10 8 7 7 8 9 7 7 8 6 6 7 5 3 4 4 3 4 6 5 5 6 6 6 7 8 10 10 10 12 14 16 19 20
36 36 34 32 27 22 20 22 21 15 12 11 10 7 5 5 5 6 7 7 7 7 7 7 6 6 6 6 7 7 7 7 8 9 10 10 10 10 10 10 9 10 11 10 10 10 11 12 12 12 12 12 9 6 6 7 7 6 6 8 7 6 7 5 4 3 3 3 4 5 4 3 4 5 6 6 7 9 10 10 11 12 16 18 18
34 35 35 34 29 24 23 23 21 15 11 10 10 7 5 3 4 6 7 6 7 6 6 6 6 6 7 8 8 7 6 6 8 9 9 9 10 10 10 10 9 9 11 11 10 10 11 11 12 12 11 11 10 7 6 5 4 4 6 7 7 7 6 7 7 6 6 5 4 5 4 4 6 7 8 7 7 8 9 9 9 9 11 15 14
33 34 34 35 32 27 25 24 21 15 10 11 10 8 5 2 4 6 7 6 7 7 7 7 7 7 9 10 8 6 4 5 7 8 8 9 10 10 10 9 9 10 10 11 11 10 11 12 12 11 11 10 9 6 6 5 4 3 4 6 6 6 6 5 5 5 4 4 3 4 5 5 5 6 6 7 8 8 7 7 7 6 8 11 12
32 33 33 34 33 30 27 25 20 13 10 12 10 9 7 3 4 5 7 7 7 8 8 8 9 9 10 9 6 3 4 5 6 8 8 9 9 9 9 9 10 10 10 11 11 11 12 13 13 11 10 9 7 5 5 6 6 5 4 5 5 6 6 5 5 5 4 4 4 5 5 4 4 5 7 7 8 9 7 6 6 4 5 8 10
31 32 32 34 34 32 29 25 19 13 12 13 11 10 8 4 4 5 6 7 8 9 10 10 11 10 10 8 5 3 5 5 6 8 8 8 8 8 8 9 10 10 11 12 12 12 12 12 12 10 9 8 5 4 4 5 5 5 4 4 4 5 5 5 5 5 5 6 6 6 6 5 5 6 7 7 8 9 9 8 7 6 5 5 7
32 33 33 34 34 33 30 25 19 13 14 15 13 12 10 7 6 6 6 6 8 9 11 12 12 11 10 8 5 3 4 5 6 7 8 8 8 8 9 9 10 11 12 13 13 12 12 10 10 8 8 7 5 3 4 5 5 4 3 3 4 5 6 6 6 6 7 7 8 8 9 8 7 7 7 7 7 8 7 6 7 7 7 7 7
32 33 34 34 34 33 29 24 18 15 16 17 16 14 11 9 8 8 8 7 8 9 11 12 12 11 10 7 4 2 2 3 5 6 8 9 9 9 10 10 11 12 13 13 12 11 10 9 8 7 7 7 5 5 5 5 5 4 2 3 4 5 8 9 10 11 10 8 8 9 9 9 9 9 9 8 8 7 6 6 7 6 6 6 7
32 33 33 33 34 34 29 25 21 19 20 19 17 16 13 11 10 9 9 9 8 10 12 13 12 10 8 5 3 2 1 2 3 5 7 9 9 10 10 11 12 13 13 12 12 10 9 8 8 7 7 6 5 4 4 4 4 3 2 3 4 7 10 11 12 13 11 8 8 8 8 8 9 9 9 9 9 8 7 7 6 6 6 6 6
30 31 32 33 34 34 30 27 24 22 22 21 19 17 15 13 11 11 11 10 9 10 12 13 12 9 7 5 3 2 2 3 3 5 7 9 9 10 11 12 13 12 12 11 11 9 8 8 7 7 6 5 4 3 3 3 3 3 3 5 6 8 9 10 11 11 11 9 8 8 8 8 8 8 8 8 9 9 9 8 8 8 8 7 7
29 31 31 32 33 33 32 30 27 26 25 22 19 18 16 15 14 13 12 11 10 11 12 12 12 8 5 4 3 2 3 4 4 5 6 8 9 10 11 12 12 12 11 10 9 8 7 7 7 6 5 5 4 3 3 3 3 4 6 7 8 8 8 9 9 9 9 9 8 8 8 8 8 8 8 8 9 9 9 9 9 9 9 9 9
29 30 31 32 34 34 34 33 30 28 25 21 20 19 18 17 16 15 14 12 12 12 12 12 11 7 4 5 4 3 4 4 4 5 6 8 9 9 10 11 11 10 9 8 8 7 6 6 6 5 5 5 4 4 3 3 4 5 7 7 8 8 8 9 10 10 9 9 8 9 9 9 9 8 9 10 10 10 11 11 10 10 11 11 11
29 30 32 33 34 35 35 34 33 30 25 22 22 21 19 19 18 17 15 14 13 13 12 12 11 7 5 7 6 4 5 5 5 5 7 8 9 9 9 10 11 9 7 7 6 5 4 4 4 4 4 4 4 4 4 5 5 6 7 7 8 8 9 10 10 10 10 10 10 10 10 10 10 11 12 13 13 13 13 12 12 13 13 13 12
29 30 32 33 34 35 35 36 35 31 27 25 23 22 21 21 20 19 17 16 15 14 13 12 10 7 5 8 7 6 6 5 5 5 6 7 8 9 10 11 10 8 6 6 5 4 3 4 4 3 3 3 4 4 5 6 7 7 8 9 9 9 9 10 10 10 10 10 10 10 11 12 13 14 15 15 15 16 15 15 15 16 15 14 14
29 31 32 33 34 35 35 37 37 32 29 28 24 21 22 22 21 20 19 17 16 15 13 11 10 7 6 9 8 7 6 6 5 5 6 7 8 10 11 11 9 6 5 4 4 4 5 5 4 3 3 4 4 4 5 7 9 9 9 9 9 10 10 10 10 10 11 12 12 12 13 14 16 17 17 17 17 18 17 17 18 17 16 16 15
29 31 32 33 34 35 34 36 37 34 32 30 25 23 24 23 23 22 20 19 17 15 12 11 10 8 8 10 10 9 8 7 6 5 6 7 9 10 10 8 7 5 5 4 5 5 6 5 5 4 4 3 3 4 7 10 11 11 11 11 10 10 10 11 11 11 12 13 14 15 15 16 17 18 18 18 18 18 18 18 18 18 17 17 16
29 30 31 31 32 34 34 35 37 36 35 32 28 25 26 25 24 23 22 20 18 15 12 11 10 9 9 11 11 10 8 7 7 6 7 8 9 10 8 6 6 5 5 5 5 5 5 5 5 5 4 3 3 6 10 11 12 12 12 12 11 11 11 11 12 12 13 14 15 15 16 16 17 17 17 17 18 18 18 18 18 17 17 17 17
29 29 30 30 32 34 34 34 36 37 37 34 30 28 27 27 25 24 23 20 18 16 13 11 11 10 11 12 11 10 9 8 7 7 8 8 9 8 6 5 5 5 4 5 5 5 4 5 5 5 4 4 5 8 10 11 11 12 13 12 12 11 10 11 11 12 13 14 14 15 15 15 16 17 17 17 17 17 18 17 17 17 17 18 18
29 30 31 30 31 33 34 34 35 37 37 36 34 30 27 27 27 25 23 20 18 16 13 11 11 11 12 13 12 11 10 9 8 8 8 8 8 7 5 4 4 3 4 4 4 4 4 5 6 5 4 4 6 8 9 10 10 11 11 11 11 11 10 10 11 11 12 13 14 14 14 14 15 16 16 15 16 16 16 16 16 16 17 18 19
29 31 30 28 29 31 33 33 34 35 36 36 35 30 24 24 27 26 23 21 19 16 13 12 12 13 13 13 13 13 11 10 9 9 8 8 7 6 5 4 3 2 3 3 3 3 4 5 6 5 4 5 6 7 8 9 9 10 10 10 10 10 10 10 10 11 11 12 13 13 12 13 13 14 14 14 14 14 14 15 15 16 17 18 20
27 29 27 25 26 28 29 31 32 35 36 35 35 32 26 23 25 25 23 21 19 16 14 13 13 13 13 14 14 14 13 11 11 10 8 8 7 6 5 3 0 2 3 2 2 3 4 5 5 5 5 5 5 6 7 8 9 9 9 9 9 9 9 9 9 10 10 11 12 12 12 12 12 13 14 14 14 14 14 15 15 16 18 19 20
22 24 25 24 25 26 27 29 32 35 37 37 37 36 29 24 26 26 23 21 19 16 14 14 14 14 15 15 15 14 14 13 12 10 9 8 7 6 4 2 2 3 3 2 2 3 3 3 4 5 5 4 4 5 6 7 7 8 8 8 8 8 8 8 8 9 9 10 11 11 11 11 11 12 14 14 14 14 14 15 16 17 18 19 20
15 17 20 20 21 22 23 26 30 34 36 38 39 36 28 24 27 27 23 21 19 17 15 15 15 15 15 16 16 15 15 14 12 11 10 8 8 6 4 3 4 4 4 3 2 2 2 3 3 4 4 3 4 5 5 6 6 6 7 7 7 7 7 8 8 9 9 10 10 11 11 11 11 13 14 14 14 14 14 15 16 17 18 18 19
12 15 18 17 19 20 22 25 29 33 36 38 39 37 30 26 27 27 23 21 20 18 17 16 16 15 16 16 17 16 16 14 13 12 10 9 8 7 5 4 5 5 5 3 2 1 1 2 2 3 3 3 4 5 5 5 6 6 6 6 6 7 7 8 8 9 9 10 10 11 11 11 11 13 14 14 14 13 14 15 16 16 17 18 18
11 15 18 19 20 21 23 26 30 34 37 39 38 36 32 28 27 26 24 23 21 19 18 17 16 15 16 17 17 17 16 15 13 11 10 9 9 8 6 5 5 5 5 4 3 2 1 1 2 2 3 3 4 4 5 5 5 5 5 5 5 6 8 8 8 9 9 9 10 10 10 10 10 12 12 12 13 12 13 14 15 15 16 17 17
12 15 17 18 19 21 23 27 30 34 37 38 38 36 33 30 28 26 25 24 21 18 17 16 16 15 16 17 17 17 16 14 12 11 10 9 9 9 8 7 6 6 5 5 4 4 2 1 2 2 3 3 4 4 4 4 4 4 4 4 5 6 7 8 8 8 9 9 9 9 8 8 9 10 10 10 11 12 12 13 14 14 15 17 17
11 12 13 13 15 17 19 22 25 30 34 36 36 34 33 32 28 26 26 23 18 17 17 16 15 16 16 17 17 17 16 14 12 11 10 10 10 10 10 9 8 8 7 6 5 4 3 2 2 2 2 3 3 3 3 3 3 3 3 4 5 6 6 7 7 7 8 8 7 7 6 7 7 8 8 10 10 11 12 13 13 14 15 16 16
7 8 9 10 11 12 14 16 20 25 30 33 33 33 34 32 29 27 26 21 16 16 17 16 16 17 17 17 17 17 15 14 12 11 10 11 11 11 11 11 10 9 8 7 6 5 3 2 2 2 2 2 2 3 3 3 3 3 3 4 4 5 5 6 6 6 6 6 6 5 5 5 6 6 7 8 9 11 12 12 13 14 15 15 14
6 7 8 9 10 11 12 14 16 20 24 27 30 33 35 33 30 28 24 19 16 17 18 17 17 18 18 18 17 16 15 14 13 12 11 11 12 12 12 12 12 10 9 9 8 6 4 3 2 1 1 1 1 2 3 3 3 3 3 3 4 4 4 5 5 5 5 5 4 3 3 4 4 5 6 7 9 10 11 12 13 14 13 13 13
7 8 9 9 10 10 10 11 12 15 18 22 27 33 35 33 30 27 22 19 18 18 19 18 19 19 19 19 18 17 16 15 14 13 12 12 13 14 14 14 13 12 11 10 9 7 6 4 2 1 0 1 1 2 3 3 4 3 2 3 3 3 3 4 4 4 4 3 3 3 3 3 4 5 6 7 8 9 10 12 12 12 12 12 12
9 8 8 8 8 8 8 9 10 12 14 18 25 31 35 34 29 25 22 20 19 19 19 20 20 20 20 19 19 18 17 16 15 14 13 13 14 15 15 15 14 13 12 11 9 8 6 5 4 3 2 2 3 3 3 4 4 3 2 2 2 3 3 3 3 3 3 3 2 2 3 3 4 5 5 7 8 9 10 11 11 11 11 11 11
11 10 10 10 10 10 10 11 11 13 15 18 23 30 33 32 28 24 22 21 20 20 21 21 22 21 20 20 19 19 18 17 16 15 15 15 15 16 16 16 15 14 13 11 10 8 7 6 5 4 4 4 4 4 5 5 5 3 3 3 3 3 3 3 3 3 3 3 3 3 3 3 4 5 6 7 8 9 9 10 11 11 11 11 11
14 14 14 13 14 14 14 13 13 16 18 19 23 28 30 29 26 23 22 21 20 21 22 23 23 23 21 20 20 20 20 19 18 17 16 16 15 16 16 16 16 15 14 12 11 10 9 8 7 6 6 6 6 6 6 6 6 4 3 3 3 3 3 3 3 3 3 4 4 3 3 3 4 5 6 7 8 9 9 10 10 10 10 11 11
16 16 17 17 18 20 18 15 14 17 19 21 24 27 28 27 25 22 21 21 22 23 23 24 25 24 22 21 21 21 21 21 20 19 18 18 17 17 17 18 17 17 16 14 13 12 11 10 8 7 7 7 7 7 7 7 7 6 5 4 3 3 3 4 4 4 4 4 4 4 3 4 4 5 6 7 8 9 9 9 9 10 10 11 11
18 19 20 21 22 23 23 19 16 18 21 23 25 27 28 28 25 23 22 23 24 24 24 24 25 25 24 23 22 22 21 21 22 22 21 20 19 18 18 18 17 16 16 15 14 13 12 10 8 8 8 8 7 7 7 7 7 7 6 5 4 3 4 4 4 4 4 4 4 4 4 5 5 6 6 7 8 8 8 8 9 9 10 11 12
20 21 22 24 24 25 26 24 21 19 21 24 26 28 30 29 27 24 25 25 26 26 25 24 25 26 25 25 23 22 22 22 23 23 23 22 21 20 18 18 17 16 16 15 14 13 12 10 10 10 10 9 8 8 8 8 8 7 6 5 5 4 5 5 5 5 5 5 5 5 5 6 6 6 7 7 8 7 8 8 8 9 9 10 12
21 23 25 26 28 27 28 28 25 21 21 24 27 30 31 30 29 27 27 27 27 27 26 26 26 27 27 27 25 24 23 23 24 25 25 24 23 21 20 19 18 18 18 17 16 15 13 12 12 12 11 10 9 9 8 8 8 8 7 6 5 5 6 6 6 6 6 6 6 7 7 7 7 7 7 7 7 7 7 8 8 9 9 10 12
23 25 26 28 29 30 31 32 30 26 24 23 26 31 34 33 31 30 29 29 29 28 28 28 28 28 29 29 28 26 25 25 25 26 26 26 25 24 23 22 21 20 20 20 19 17 16 15 14 13 12 11 11 10 9 8 8 8 8 7 6 6 7 7 8 7 7 7 8 7 7 7 7 7 7 7 6 6 7 7 8 9 10 11 12
Wind_Direction
199 209 213 219 221 223 229 229 236 244 254 266 276 284 289 292 296 298 301 304 305 303 302 303 305 307 308 308 310 313 315 316 315 313 313 311 310 309 308 307 304 299 294 292 292 293 294 292 290 288 287 288 288 288 291 294 293 290 289 291 293 291 289 286 282 279 278 279 280 281 280 281 281 281 279 277 276 276 276 275 274 275 277 278 280
206 213 216 220 221 222 228 232 242 253 262 271 279 285 289 293 295 298 301 302 301 303 305 308 313 317 319 319 320 322 322 320 320 319 319 319 318 315 314 313 312 308 298 292 293 296 296 296 294 292 293 293 293 291 290 292 294 295 296 296 297 297 298 299 294 287 282 281 282 283 283 283 281 280 279 276 273 272 272 272 271 271 271 273 275
212 214 216 217 218 222 228 236 245 252 260 270 279 287 291 294 296 297 298 298 299 302 306 312 319 324 326 326 327 329 328 328 328 328 329 330 329 326 323 322 322 321 310 292 290 295 295 296 297 297 297 297 298 295 291 292 293 295 296 295 296 295 296 298 296 293 290 287 285 285 288 289 287 285 283 280 276 273 270 269 269 268 268 267 268
214 215 217 216 219 225 229 237 244 251 262 274 282 287 290 291 291 290 292 297 302 307 312 317 323 327 328 330 332 333 333 335 337 338 336 334 333 331 330 331 331 332 322 294 278 286 289 290 295 296 297 301 303 299 295 295 292 289 287 287 291 293 292 291 289 288 287 286 284 284 288 291 291 293 293 288 282 279 274 268 266 265 263 261 261
217 215 217 218 222 226 229 236 244 256 267 274 280 283 283 283 284 288 296 304 310 312 315 319 323 324 325 326 328 331 335 340 346 349 347 344 343 344 345 345 343 342 335 301 269 267 270 274 282 288 294 300 302 297 292 288 283 281 280 280 282 284 286 284 283 281 278 278 275 274 280 283 286 294 297 293 286 280 274 268 264 263 262 260 260
223 220 220 221 223 226 230 236 246 258 265 269 271 272 274 278 285 295 305 310 311 311 314 319 322 323 326 328 331 337 348 358 1 0 360 359 358 358 358 359 355 349 347 326 281 267 269 274 280 285 291 294 293 290 287 281 276 276 275 274 275 276 280 281 281 278 274 273 271 268 268 271 279 288 292 291 289 283 273 267 264 261 260 259 259
229 226 224 223 225 228 232 238 248 256 261 262 263 266 272 281 291 300 306 308 307 310 317 321 323 327 332 338 345 356 10 18 12 4 1 1 360 357 357 2 1 353 348 340 312 284 277 278 280 283 287 287 286 286 284 280 277 276 275 276 278 279 279 281 283 283 280 278 276 270 263 261 270 281 286 291 294 292 283 272 266 265 263 259 257
235 231 226 224 227 231 235 242 251 257 262 262 264 271 276 284 295 300 302 303 306 314 321 322 325 331 338 349 2 12 21 21 11 359 355 354 349 348 353 358 358 356 351 340 323 302 288 283 282 283 284 284 283 282 281 282 282 281 281 282 284 285 286 285 285 286 286 286 284 280 274 268 268 273 282 291 294 292 290 283 274 272 270 265 261
237 233 227 226 229 233 238 242 250 259 263 265 267 272 279 287 293 295 298 303 311 318 320 322 328 337 345 359 13 19 20 13 3 355 351 346 339 343 351 352 350 351 348 339 326 312 301 294 292 290 288 287 284 282 284 287 287 284 283 283 285 288 290 290 289 289 289 290 290 288 282 277 274 272 275 280 282 285 289 289 288 287 281 274 268
237 233 229 229 231 232 236 241 251 257 258 261 263 268 278 285 287 292 303 312 316 318 318 323 333 342 349 2 11 15 15 8 359 353 349 343 339 346 350 348 349 347 343 341 336 326 317 309 303 298 294 290 287 287 287 287 287 284 282 283 287 290 292 292 292 292 289 286 285 284 282 282 284 281 278 279 280 279 281 287 293 297 294 286 276
236 233 230 230 230 230 230 235 246 251 254 256 260 266 274 280 290 302 315 318 315 314 315 322 332 341 350 1 3 0 0 359 356 356 356 347 344 350 350 347 346 344 344 344 340 335 333 330 322 314 306 299 293 293 295 295 294 292 291 291 291 292 293 293 291 290 290 291 291 288 285 286 283 279 280 285 290 287 281 283 290 293 293 290 283
231 230 229 227 226 224 220 224 235 247 254 253 254 261 270 285 302 312 318 316 311 309 310 317 331 346 357 359 356 353 352 350 349 354 355 350 347 345 346 346 341 338 341 342 342 344 347 350 347 339 331 322 312 306 303 302 300 297 297 296 295 294 294 297 301 299 296 301 304 294 283 281 276 274 277 280 289 294 289 285 287 290 293 294 292
227 226 226 225 222 218 215 219 227 242 252 246 247 256 272 297 309 316 318 312 304 303 305 315 332 349 356 354 352 352 350 346 344 347 347 347 347 344 342 343 339 337 336 339 348 356 357 358 359 356 352 346 343 338 330 327 322 313 306 301 298 298 301 308 319 316 311 311 303 288 285 291 293 293 293 286 288 292 290 290 293 294 295 298 299
225 224 223 223 218 211 213 218 222 235 245 240 245 257 278 304 312 318 318 307 301 303 309 321 334 343 348 348 346 344 343 341 340 342 341 342 344 345 343 341 336 334 332 336 348 356 357 360 2 5 5 2 359 353 349 349 347 342 333 327 321 315 315 312 294 289 299 306 291 285 289 291 287 290 296 294 290 288 288 294 302 300 296 299 304
223 222 221 222 218 211 216 221 221 229 237 239 248 260 282 309 327 337 331 311 305 309 314 324 336 343 344 342 336 330 329 335 339 339 338 339 341 343 343 341 335 330 328 334 344 350 354 358 1 4 8 9 7 360 353 345 347 5 3 352 355 355 350 352 345 332 333 327 314 316 321 300 281 282 289 292 289 289 286 281 288 298 299 302 305
221 220 218 219 217 215 221 224 221 223 232 240 244 248 261 300 342 355 352 327 314 319 320 325 336 338 330 325 322 317 319 333 339 337 336 339 343 345 346 345 342 334 328 332 341 349 353 354 355 357 359 3 6 9 11 3 358 12 5 359 12 22 24 33 38 39 40 32 16 1 347 328 316 310 311 312 305 297 289 276 275 288 298 301 303
221 221 218 216 214 216 222 223 219 220 235 242 237 234 240 278 342 358 1 343 327 331 329 325 326 327 323 320 316 310 324 341 341 338 339 343 347 350 352 350 345 339 334 336 343 350 349 345 346 349 348 351 0 7 7 7 2 348 347 359 19 29 29 40 55 64 58 45 17 352 349 350 350 349 350 346 333 319 305 287 282 285 293 294 294
223 223 220 216 213 216 221 220 216 218 235 239 233 230 232 259 325 345 355 347 334 332 331 325 322 327 332 329 320 321 352 357 344 340 342 347 351 351 351 349 345 343 341 341 341 341 340 339 339 343 346 350 357 353 347 358 3 356 357 3 11 18 15 22 45 55 47 31 11 5 7 4 355 356 356 348 336 330 327 321 314 312 302 288 286
224 224 223 219 215 217 220 217 211 214 227 230 231 233 231 239 282 313 334 336 332 329 327 325 324 331 338 336 332 349 6 359 342 339 343 346 348 346 346 345 344 344 342 339 338 339 339 339 341 347 354 357 358 348 340 350 360 7 14 9 10 14 4 5 28 40 32 20 16 19 13 359 342 334 336 335 329 330 340 351 349 347 342 316 304
227 227 227 223 217 217 218 212 206 214 226 228 232 236 231 230 253 282 304 315 324 325 322 321 322 330 335 330 324 341 5 350 336 337 341 341 341 341 343 344 346 346 343 341 340 342 344 347 353 360 2 5 5 354 349 356 11 26 22 9 19 9 352 354 5 11 10 7 15 24 20 14 9 358 353 349 342 340 345 346 343 352 6 2 351
230 232 232 227 220 218 216 208 204 215 224 227 233 236 231 229 245 269 286 299 313 318 318 316 316 325 328 319 305 316 348 336 331 335 336 336 338 339 341 345 349 347 344 345 344 345 352 358 4 5 1 3 4 3 11 18 28 38 16 8 14 350 347 360 6 6 9 12 18 23 19 14 11 5 2 3 4 3 350 329 323 338 354 356 354
233 234 234 231 224 219 213 205 205 213 219 224 232 234 229 230 243 263 278 290 301 308 312 310 309 319 321 302 275 268 286 297 316 328 329 332 334 336 340 343 344 341 340 343 345 348 355 359 359 356 352 354 358 10 29 26 21 22 353 342 342 339 352 2 360 1 9 16 16 15 13 12 13 9 5 6 9 12 7 356 345 342 345 345 340
235 235 234 233 227 220 211 206 208 214 217 224 232 233 228 232 242 256 269 281 289 296 303 302 303 312 312 288 260 233 238 263 292 311 316 323 328 331 336 338 339 340 340 341 344 349 353 354 354 352 350 356 4 17 26 8 3 356 330 330 341 350 0 1 359 7 21 28 26 22 21 21 19 13 9 10 13 15 16 13 9 5 4 4 358
235 235 234 232 228 221 212 209 212 214 217 225 233 232 228 232 240 250 262 271 276 285 294 295 297 305 297 267 247 206 216 248 274 296 307 316 321 326 331 333 336 341 342 343 347 350 353 354 355 358 5 15 22 29 18 358 356 351 347 353 3 6 6 8 16 28 34 34 32 29 30 31 28 21 18 19 20 20 19 18 16 16 15 15 14
236 235 234 232 229 224 216 213 214 215 218 227 235 232 229 233 239 247 256 261 266 276 287 288 288 293 266 236 226 196 210 241 263 284 299 308 314 321 326 329 332 338 344 348 350 351 352 353 355 6 18 25 29 29 18 5 5 5 5 7 10 14 17 22 30 34 34 34 33 34 37 37 33 28 28 30 28 28 27 23 21 20 21 20 18
237 235 234 233 231 227 220 216 216 217 218 230 237 233 229 233 238 243 249 254 260 271 282 282 279 279 243 222 220 202 208 237 258 276 294 302 309 317 322 324 329 338 350 352 352 354 354 354 2 15 20 23 26 25 21 20 19 16 14 14 16 19 21 24 27 30 33 35 34 37 41 41 38 37 38 38 37 37 36 34 33 33 31 28 23
237 235 234 233 232 231 225 219 219 218 220 232 237 230 229 233 235 238 243 247 254 265 277 277 269 266 233 218 223 214 213 237 257 272 290 298 307 315 316 318 328 345 359 357 2 17 18 16 26 30 25 24 23 17 18 22 23 21 17 15 15 18 20 24 29 33 38 39 40 43 45 44 45 45 44 44 44 43 42 42 42 41 39 36 35
235 233 234 235 235 233 228 222 221 219 222 231 234 228 230 233 235 237 239 243 251 262 273 271 262 258 229 215 221 223 224 240 254 265 283 294 304 313 316 321 332 353 5 13 29 38 35 35 36 31 29 29 19 18 32 38 37 33 27 23 23 25 29 34 36 39 43 44 45 46 48 49 49 50 49 48 48 47 46 46 47 46 44 43 43
233 234 236 238 238 235 230 225 223 220 222 229 230 227 229 230 232 235 236 241 248 258 268 264 256 252 226 213 219 225 230 239 243 258 281 293 307 318 325 334 348 6 20 38 46 43 40 39 36 32 34 36 37 49 56 55 50 42 36 34 35 36 39 41 43 45 47 48 48 47 49 51 51 51 50 49 49 48 46 47 48 47 46 46 47
234 237 238 238 240 238 232 227 223 221 222 226 227 226 227 228 230 231 232 237 245 255 263 260 254 247 222 213 219 224 229 233 236 258 280 293 310 323 334 351 6 18 34 47 47 43 44 44 40 42 49 61 72 70 65 59 53 46 41 41 43 44 45 45 47 49 50 51 51 51 53 54 54 53 50 48 48 46 46 47 47 48 47 46 46
238 239 238 238 240 239 233 227 225 223 223 225 226 226 227 228 229 230 231 235 243 253 259 258 252 239 219 214 219 221 225 231 239 261 279 291 310 324 339 4 15 22 33 45 48 46 52 56 51 50 59 73 77 73 68 60 53 47 43 46 49 47 47 48 49 52 55 56 56 57 57 58 58 56 52 48 46 44 45 45 45 46 45 44 44
242 239 238 238 239 239 234 229 227 226 225 226 227 226 227 229 229 229 229 232 242 251 255 253 245 232 219 216 219 223 226 230 242 261 275 286 303 319 333 359 17 32 40 43 50 58 67 68 60 52 59 68 71 73 69 60 55 52 48 48 52 50 47 49 52 55 58 60 60 60 59 59 59 58 55 51 47 45 44 44 43 43 43 43 43
247 240 237 239 242 243 241 235 231 229 228 229 229 227 226 228 227 227 228 231 240 248 249 244 238 230 221 217 220 224 226 232 245 260 271 279 292 309 328 350 18 62 68 54 59 70 75 76 70 62 59 61 67 72 69 61 57 56 52 50 51 51 48 49 52 57 61 62 61 59 56 56 58 60 60 56 52 51 50 50 49 47 48 49 47
252 243 239 241 245 247 246 241 236 234 232 231 231 228 226 227 225 224 227 232 238 244 243 238 234 229 223 219 219 221 224 234 246 255 263 268 274 292 315 331 49 117 106 90 81 77 75 81 78 69 59 57 62 66 66 63 59 57 55 51 50 50 47 47 52 57 60 64 64 58 53 53 57 61 63 61 57 56 56 56 55 53 53 54 52
257 246 239 242 246 248 249 245 238 235 234 232 231 227 225 226 226 223 227 233 237 240 240 236 233 227 222 219 218 219 226 237 245 250 255 255 258 276 293 267 197 156 139 125 100 83 76 79 78 70 57 49 54 61 61 60 59 58 56 51 48 48 45 45 50 55 58 63 64 59 54 55 61 63 66 64 59 57 56 54 52 52 52 52 50
265 250 239 243 250 253 254 248 240 237 236 235 232 228 223 224 224 223 227 232 235 237 238 237 233 226 221 219 218 221 229 237 242 243 244 242 244 256 259 228 204 180 166 150 117 86 71 69 73 73 64 51 56 65 63 59 56 55 53 50 46 44 41 42 47 51 53 57 61 61 59 61 65 67 68 66 60 55 53 50 47 48 48 47 46
266 254 243 247 256 258 256 250 242 238 238 237 234 229 223 221 220 222 227 230 232 236 239 239 236 228 222 219 218 222 229 236 240 238 234 232 232 237 236 218 206 197 189 179 155 106 72 71 78 80 70 57 58 63 61 58 54 47 46 47 44 41 38 38 41 45 47 51 56 61 64 65 66 66 66 64 59 53 48 47 45 44 45 44 43
259 253 247 248 255 258 256 250 244 240 239 238 234 229 223 219 217 220 226 229 232 237 241 241 237 230 224 220 218 221 228 235 237 233 230 227 224 227 229 213 205 207 208 208 204 189 140 93 101 99 78 57 50 51 53 53 49 42 39 39 36 37 35 31 34 39 40 43 49 56 63 65 64 63 62 60 57 51 45 45 43 40 40 41 41
257 257 257 259 262 263 259 253 247 244 241 238 234 228 221 217 216 220 225 228 233 239 243 243 238 231 226 219 216 221 229 235 235 231 228 223 219 223 225 214 209 212 215 221 220 206 197 167 115 104 86 60 41 37 38 37 38 35 30 28 29 32 31 26 28 34 34 36 42 49 57 61 61 61 60 57 54 49 42 40 38 33 31 34 35
257 256 255 254 255 258 257 255 253 250 245 240 234 226 219 216 217 221 225 229 236 242 243 240 235 229 225 218 214 221 229 232 229 225 223 220 216 219 223 221 218 218 220 230 232 219 205 182 132 97 82 60 34 23 18 14 19 20 15 18 23 26 26 20 22 30 31 31 38 47 56 61 62 61 57 53 50 43 35 31 27 23 24 27 27
241 236 232 236 243 250 255 258 260 256 249 241 232 223 217 216 218 223 227 231 238 241 237 234 230 227 222 216 215 222 228 228 223 218 217 217 214 217 224 226 226 225 227 231 235 236 226 188 146 100 76 53 16 5 354 340 341 350 356 5 13 20 20 13 17 28 27 23 35 55 66 66 63 58 53 47 41 34 27 21 17 18 21 22 20
231 228 232 239 246 252 254 255 257 256 251 243 231 221 217 216 219 225 229 232 235 235 231 229 229 227 221 216 215 220 225 224 220 218 216 216 215 217 223 228 231 233 234 234 236 241 241 214 171 119 81 47 357 339 323 311 308 317 341 355 360 7 9 4 10 24 23 21 41 73 80 71 63 54 44 35 30 26 19 13 13 16 18 17 16
244 241 242 241 244 251 255 253 251 251 249 240 229 221 217 217 222 227 229 230 231 231 229 228 228 227 222 216 215 218 221 220 219 219 217 217 218 219 221 226 231 234 235 235 236 238 238 235 227 217 302 321 316 315 308 296 290 297 320 338 344 353 356 355 2 14 20 25 54 82 77 60 54 44 31 22 19 17 11 9 11 13 13 12 13
240 238 238 237 237 238 239 242 244 245 242 233 225 220 218 220 225 228 227 228 228 228 228 227 228 227 221 217 217 218 219 218 219 218 218 218 220 222 224 227 231 233 233 234 235 235 234 239 248 259 276 289 295 300 299 288 280 285 302 313 324 337 341 344 351 358 8 22 46 68 54 34 32 28 16 11 9 6 5 5 6 7 7 7 7
237 234 233 232 228 221 222 229 231 233 235 229 222 220 220 222 226 227 227 227 227 226 227 227 226 225 219 216 218 219 219 218 218 219 219 220 223 226 227 228 229 231 232 232 232 232 234 242 254 265 276 284 289 292 293 288 283 283 294 301 311 324 329 330 334 338 351 4 14 26 25 15 13 7 0 360 359 356 357 359 0 2 2 1 1
234 235 238 234 224 219 224 231 229 228 229 225 221 220 222 224 227 228 229 229 227 227 229 228 225 222 217 215 217 219 219 219 219 221 221 222 226 230 232 232 232 232 234 235 233 233 237 243 253 264 274 281 286 290 291 292 291 288 288 293 300 310 313 313 313 320 336 349 351 349 350 354 354 351 350 352 351 349 350 352 355 357 357 356 359
239 240 243 239 230 223 223 224 225 227 227 223 220 221 223 225 228 230 230 229 228 228 228 227 224 220 215 214 215 217 218 219 219 220 220 220 224 229 231 233 234 234 236 235 233 233 236 241 249 262 272 277 282 287 290 292 289 286 284 285 288 295 297 295 298 306 316 326 330 328 330 336 336 334 337 343 343 343 344 346 350 354 354 355 358
246 246 246 244 239 232 226 224 228 230 227 223 220 220 221 224 226 228 229 228 227 226 225 225 222 217 213 213 214 216 218 219 219 220 220 221 223 226 230 233 236 238 239 238 237 238 238 240 248 260 267 272 276 282 285 285 283 281 282 282 282 284 283 282 283 289 295 301 307 312 317 318 315 318 327 334 336 336 336 339 347 352 353 356 360
254 255 254 252 249 241 231 229 233 232 228 227 225 222 222 224 225 225 225 226 226 224 222 222 220 216 214 213 214 216 219 221 222 222 222 224 226 229 233 235 236 238 241 241 242 243 243 244 249 254 259 264 269 273 277 278 279 280 280 279 278 279 278 275 273 275 279 284 292 300 304 306 308 312 318 322 325 328 329 335 345 351 354 357 359
262 262 259 256 254 249 239 233 231 226 223 229 231 227 225 226 227 225 223 223 224 222 220 219 218 216 215 214 215 217 219 221 223 224 223 224 225 227 229 231 232 233 235 236 237 237 237 237 239 243 249 254 259 264 269 274 277 278 276 275 274 272 270 267 266 267 269 274 284 291 294 298 301 301 303 308 314 319 324 332 342 349 353 354 355
265 265 263 259 256 252 245 238 232 224 220 225 231 231 230 229 228 225 223 223 223 221 220 218 216 216 216 216 216 217 219 221 224 225 225 225 226 226 227 227 228 229 230 232 233 232 233 234 235 237 242 246 250 256 262 267 271 274 274 272 267 264 264 263 262 264 266 270 277 282 284 284 284 283 287 295 304 312 321 330 338 345 350 351 351
Height
1545 1546 1547 1548 1548 1549 1550 1551 1551 1551 1551 1551 1551 1551 1551 1551 1551 1551 1551 1551 1550 1550 1549 1549 1549 1548 1548 1547 1547 1546 1546 1545 1544 1544 1543 1543 1542 1541 1541 1541 1540 1540 1540 1540 1540 1540 1540 1541 1541 1541 1541 1542 1542 1542 1542 1541 1542 1542 1542 1541 1541 1541 1541 1541 1540 1540 1539 1539 1539 1539 1539 1539 1540 1540 1540 1540 1541 1541 1541 1542 1542 1543 1543 1544 1545
1545 1546 1547 1548 1548 1549 1550 1551 1551 1551 1551 1551 1551 1551 1551 1551 1551 1551 1551 1550 1550 1549 1548 1548 1547 1547 1546 1546 1545 1545 1544 1543 1543 1542 1541 1541 1540 1539 1539 1539 1538 1538 1538 1538 1538 1538 1539 1539 1539 1539 1540 1540 1540 1541 1541 1541 1541 1541 1540 1540 1540 1539 1539 1540 1539 1538 1538 1537 1537 1536 1536 1537 1537 1537 1537 1537 1538 1538 1538 1539 1539 1540 1540 1541 1542
1544 1545 1546 1547 1548 1549 1550 1550 1551 1551 1550 1550 1550 1550 1550 1550 1550 1550 1550 1550 1549 1548 1548 1547 1547 1546 1545 1545 1544 1543 1543 1542 1541 1540 1540 1539 1539 1538 1538 1537 1537 1537 1537 1536 1537 1537 1537 1537 1537 1538 1538 1538 1539 1539 1539 1540 1540 1540 1539 1538 1538 1538 1538 1538 1538 1537 1537 1536 1536 1535 1534 1534 1534 1534 1535 1535 1535 1535 1535 1535 1536 1536 1537 1538 1538
1543 1544 1546 1547 1547 1548 1549 1549 1550 1550 1550 1550 1550 1550 1550 1550 1550 1549 1549 1549 1548 1548 1547 1547 1546 1545 1545 1544 1543 1543 1542 1541 1541 1540 1539 1538 1538 1538 1537 1537 1536 1536 1535 1535 1535 1536 1536 1536 1536 1536 1537 1537 1537 1538 1538 1538 1538 1538 1538 1537 1536 1536 1536 1536 1536 1536 1536 1535 1535 1534 1534 1533 1532 1532 1532 1532 1533 1533 1533 1533 1533 1533 1534 1534 1534
1542 1543 1545 1546 1547 1548 1548 1549 1549 1549 1550 1550 1550 1550 1550 1550 1549 1549 1549 1548 1548 1547 1547 1546 1546 1545 1544 1544 1543 1542 1541 1541 1540 1540 1539 1538 1537 1537 1536 1536 1535 1535 1534 1534 1534 1535 1535 1535 1535 1535 1536 1536 1536 1536 1536 1536 1536 1536 1536 1535 1535 1534 1534 1534 1534 1534 1534 1533 1533 1533 1533 1533 1531 1531 1530 1530 1531 1532 1531 1531 1531 1531 1531 1531 1531
1542 1543 1544 1545 1546 1547 1548 1548 1549 1549 1550 1550 1550 1550 1549 1549 1549 1548 1548 1548 1548 1547 1546 1546 1545 1545 1544 1543 1542 1542 1541 1540 1540 1539 1539 1538 1537 1536 1536 1535 1535 1534 1534 1533 1533 1534 1534 1534 1534 1534 1534 1534 1534 1534 1534 1534 1534 1534 1534 1534 1533 1533 1532 1532 1532 1532 1532 1531 1531 1532 1532 1532 1531 1531 1530 1529 1528 1529 1530 1530 1530 1529 1529 1529 1529
1541 1542 1543 1545 1545 1547 1547 1548 1549 1549 1550 1550 1550 1550 1549 1549 1549 1549 1548 1548 1547 1547 1546 1546 1545 1545 1544 1543 1542 1541 1541 1541 1540 1540 1539 1539 1538 1537 1536 1535 1535 1534 1533 1533 1533 1533 1533 1533 1533 1533 1533 1533 1533 1533 1533 1532 1532 1532 1532 1532 1531 1531 1531 1530 1530 1530 1530 1529 1529 1530 1530 1530 1530 1530 1530 1529 1527 1526 1527 1529 1529 1529 1528 1528 1528
1540 1542 1542 1544 1545 1546 1547 1547 1548 1549 1549 1550 1549 1549 1549 1549 1549 1548 1548 1548 1547 1546 1546 1545 1545 1545 1544 1543 1543 1542 1542 1541 1541 1540 1540 1539 1538 1537 1536 1536 1535 1534 1533 1533 1533 1532 1532 1532 1532 1532 1532 1532 1532 1531 1531 1531 1531 1531 1530 1530 1530 1529 1529 1529 1529 1528 1528 1527 1527 1528 1528 1528 1529 1528 1529 1529 1527 1525 1524 1526 1527 1527 1527 1527 1527
1539 1541 1542 1543 1545 1545 1546 1547 1548 1548 1548 1549 1549 1549 1549 1548 1548 1548 1548 1547 1547 1546 1546 1545 1545 1544 1544 1543 1543 1543 1542 1542 1541 1541 1540 1539 1539 1538 1537 1536 1535 1534 1533 1533 1532 1532 1532 1531 1531 1531 1530 1530 1530 1530 1530 1530 1530 1529 1529 1529 1528 1528 1528 1527 1527 1527 1527 1526 1526 1526 1526 1526 1526 1527 1527 1527 1527 1525 1523 1523 1525 1525 1525 1525 1525
1537 1539 1541 1543 1544 1545 1546 1547 1548 1548 1548 1548 1548 1548 1548 1548 1548 1548 1548 1547 1546 1546 1545 1545 1545 1544 1544 1543 1543 1543 1542 1542 1541 1541 1540 1540 1539 1538 1537 1536 1535 1534 1533 1532 1532 1531 1531 1531 1531 1530 1530 1529 1529 1529 1529 1529 1529 1528 1528 1527 1527 1527 1526 1526 1525 1525 1525 1525 1524 1524 1524 1524 1524 1524 1525 1525 1525 1524 1523 1522 1523 1523 1522 1522 1523
1536 1538 1540 1542 1544 1545 1546 1547 1548 1548 1548 1548 1547 1548 1548 1548 1548 1547 1547 1546 1546 1546 1545 1545 1544 1544 1544 1543 1543 1543 1542 1542 1541 1541 1540 1540 1539 1538 1537 1536 1535 1534 1533 1532 1532 1531 1531 1531 1530 1530 1529 1529 1528 1528 1528 1528 1528 1527 1527 1526 1526 1525 1525 1525 1524 1524 1523 1523 1523 1523 1522 1523 1523 1523 1523 1523 1523 1523 1522 1521 1522 1522 1521 1520 1521
1535 1537 1539 1541 1542 1544 1546 1547 1548 1548 1547 1547 1547 1548 1548 1548 1547 1547 1546 1546 1545 1545 1545 1545 1544 1543 1543 1543 1543 1542 1542 1541 1541 1540 1540 1539 1539 1538 1537 1536 1535 1534 1533 1533 1532 1531 1530 1530 1529 1529 1528 1528 1528 1527 1527 1527 1527 1526 1526 1525 1525 1524 1524 1524 1523 1523 1522 1522 1522 1522 1521 1521 1521 1521 1521 1521 1521 1521 1521 1520 1521 1521 1520 1519 1520
1532 1535 1537 1539 1541 1542 1544 1545 1546 1546 1546 1546 1547 1547 1548 1547 1547 1547 1546 1545 1545 1545 1545 1544 1543 1543 1543 1543 1542 1542 1542 1541 1541 1540 1540 1539 1538 1538 1537 1536 1535 1534 1533 1532 1532 1531 1530 1530 1529 1529 1528 1527 1527 1527 1527 1526 1526 1525 1525 1524 1524 1524 1523 1523 1523 1522 1522 1522 1521 1521 1521 1520 1520 1520 1520 1520 1520 1520 1519 1518 1519 1520 1519 1518 1518
1530 1533 1535 1537 1539 1541 1542 1544 1545 1545 1545 1545 1546 1547 1547 1547 1547 1546 1546 1545 1545 1544 1544 1543 1543 1542 1542 1542 1542 1541 1541 1541 1540 1540 1539 1538 1538 1537 1536 1536 1535 1534 1533 1532 1531 1531 1531 1530 1529 1529 1528 1527 1527 1527 1526 1526 1526 1525 1524 1524 1523 1523 1523 1522 1522 1522 1522 1521 1521 1520 1520 1520 1520 1519 1519 1519 1519 1518 1518 1517 1517 1518 1518 1517 1517
1527 1531 1533 1535 1538 1539 1541 1542 1543 1544 1544 1544 1545 1546 1546 1546 1546 1546 1545 1545 1544 1544 1543 1543 1542 1542 1541 1541 1541 1541 1540 1540 1539 1539 1538 1538 1537 1536 1536 1535 1534 1533 1533 1532 1532 1531 1531 1530 1530 1529 1528 1528 1527 1527 1527 1526 1526 1525 1524 1524 1523 1523 1522 1522 1522 1521 1521 1521 1520 1519 1519 1519 1519 1519 1519 1519 1518 1518 1517 1516 1516 1516 1516 1516 1516
1525 1528 1531 1533 1536 1538 1539 1541 1542 1542 1543 1543 1544 1545 1546 1546 1546 1545 1545 1544 1544 1543 1543 1542 1542 1541 1541 1540 1540 1540 1539 1539 1539 1538 1538 1537 1536 1536 1535 1535 1534 1533 1533 1532 1532 1531 1531 1530 1530 1529 1529 1528 1527 1527 1527 1527 1526 1525 1524 1524 1523 1523 1523 1522 1522 1521 1521 1521 1520 1519 1519 1519 1519 1518 1518 1518 1518 1518 1517 1516 1515 1514 1515 1516 1515
1522 1524 1527 1531 1534 1536 1537 1539 1540 1541 1541 1543 1544 1545 1545 1545 1545 1545 1545 1544 1544 1543 1542 1542 1541 1541 1540 1539 1539 1539 1539 1539 1538 1538 1537 1537 1536 1536 1535 1535 1534 1533 1533 1532 1532 1531 1531 1530 1530 1529 1529 1528 1527 1527 1527 1527 1526 1525 1525 1524 1524 1524 1523 1523 1522 1522 1521 1521 1520 1520 1519 1519 1518 1518 1518 1518 1518 1517 1517 1516 1514 1513 1514 1515 1515
1521 1523 1525 1529 1531 1533 1535 1538 1539 1539 1540 1542 1543 1544 1544 1544 1544 1544 1544 1544 1543 1542 1542 1541 1540 1540 1539 1538 1538 1538 1538 1538 1538 1537 1537 1537 1536 1536 1535 1535 1534 1534 1533 1532 1532 1531 1531 1530 1530 1529 1529 1528 1528 1527 1527 1526 1526 1525 1524 1524 1524 1524 1524 1523 1522 1522 1521 1521 1520 1519 1519 1519 1518 1518 1517 1517 1517 1516 1516 1515 1514 1512 1511 1513 1515
1520 1521 1523 1527 1529 1531 1534 1536 1537 1538 1540 1542 1542 1543 1543 1543 1543 1543 1543 1543 1542 1542 1541 1540 1540 1539 1539 1538 1537 1537 1537 1537 1537 1537 1537 1537 1536 1536 1536 1535 1535 1534 1533 1533 1532 1532 1531 1530 1529 1529 1528 1528 1528 1527 1527 1526 1526 1525 1525 1524 1524 1524 1524 1523 1522 1522 1521 1521 1520 1520 1519 1519 1518 1518 1517 1517 1516 1516 1516 1515 1514 1512 1510 1511 1514
1517 1519 1521 1524 1527 1529 1532 1534 1536 1536 1539 1540 1541 1542 1542 1543 1543 1543 1543 1542 1542 1541 1540 1540 1539 1538 1538 1537 1537 1537 1537 1537 1537 1537 1537 1537 1536 1536 1536 1535 1535 1534 1534 1533 1532 1532 1531 1530 1529 1529 1529 1528 1528 1527 1527 1526 1526 1526 1525 1525 1525 1525 1524 1523 1522 1522 1521 1521 1520 1520 1519 1518 1518 1517 1517 1516 1516 1515 1515 1515 1514 1513 1511 1510 1511
1515 1517 1519 1522 1525 1528 1531 1533 1535 1536 1538 1539 1540 1541 1541 1541 1542 1542 1542 1542 1541 1541 1540 1539 1539 1538 1538 1537 1536 1537 1537 1537 1537 1537 1537 1537 1537 1536 1536 1535 1535 1534 1534 1533 1532 1531 1531 1530 1530 1529 1529 1528 1528 1528 1527 1527 1527 1527 1527 1526 1526 1525 1524 1523 1523 1523 1522 1521 1521 1520 1519 1519 1518 1517 1516 1516 1515 1514 1515 1514 1514 1513 1511 1510 1509
1515 1516 1518 1520 1523 1526 1530 1532 1533 1534 1536 1538 1539 1540 1540 1541 1541 1541 1541 1541 1541 1540 1540 1539 1538 1538 1537 1536 1536 1536 1536 1537 1538 1538 1538 1537 1537 1537 1536 1536 1535 1534 1534 1533 1532 1532 1531 1531 1530 1530 1529 1529 1528 1528 1528 1528 1528 1528 1527 1527 1526 1525 1525 1524 1523 1523 1522 1521 1521 1520 1520 1519 1518 1517 1516 1515 1515 1514 1514 1514 1513 1512 1511 1510 1509
1515 1516 1517 1519 1521 1525 1528 1530 1531 1533 1534 1537 1538 1539 1539 1540 1540 1541 1541 1541 1540 1540 1539 1539 1538 1538 1537 1536 1536 1537 1537 1537 1538 1538 1538 1538 1537 1537 1536 1536 1535 1534 1534 1533 1532 1532 1532 1531 1531 1530 1530 1529 1529 1529 1529 1529 1528 1528 1528 1527 1526 1526 1525 1525 1524 1523 1522 1522 1521 1520 1520 1519 1518 1518 1517 1516 1515 1514 1514 1514 1513 1512 1511 1510 1509
1514 1515 1516 1518 1520 1523 1526 1527 1529 1531 1533 1535 1537 1537 1538 1539 1540 1540 1540 1540 1540 1540 1539 1539 1538 1538 1537 1536 1536 1537 1537 1537 1538 1538 1538 1538 1537 1537 1537 1536 1536 1535 1534 1533 1533 1532 1532 1532 1531 1531 1530 1530 1530 1530 1529 1529 1529 1528 1528 1527 1527 1526 1526 1525 1524 1524 1523 1522 1522 1521 1520 1519 1519 1518 1517 1517 1516 1515 1514 1514 1513 1512 1511 1510 1510
1512 1513 1515 1516 1518 1520 1523 1525 1527 1529 1531 1534 1536 1536 1537 1538 1539 1539 1539 1540 1539 1539 1539 1538 1538 1538 1537 1537 1536 1537 1537 1538 1538 1538 1538 1538 1537 1537 1537 1536 1536 1535 1534 1534 1533 1533 1532 1532 1532 1531 1531 1531 1530 1530 1530 1529 1529 1529 1528 1528 1527 1527 1526 1526 1525 1524 1524 1523 1522 1522 1521 1520 1519 1519 1518 1517 1516 1516 1515 1514 1514 1513 1512 1511 1510
1509 1511 1512 1513 1515 1517 1520 1523 1525 1527 1530 1533 1534 1534 1535 1536 1537 1538 1538 1539 1539 1539 1539 1538 1538 1538 1538 1537 1537 1537 1538 1538 1538 1538 1538 1538 1538 1537 1537 1536 1536 1535 1535 1534 1534 1533 1533 1533 1533 1532 1532 1531 1531 1531 1530 1530 1530 1529 1529 1528 1528 1527 1527 1526 1526 1525 1524 1524 1523 1522 1521 1521 1520 1519 1518 1518 1517 1516 1516 1515 1514 1513 1512 1512 1511
1507 1508 1510 1511 1513 1515 1518 1520 1523 1526 1529 1530 1531 1531 1533 1534 1535 1536 1537 1537 1538 1538 1538 1537 1537 1537 1537 1537 1537 1537 1538 1538 1538 1538 1538 1538 1538 1537 1537 1536 1536 1535 1535 1534 1534 1534 1534 1533 1533 1533 1532 1532 1531 1531 1531 1531 1530 1530 1529 1529 1528 1528 1527 1527 1526 1526 1525 1524 1524 1523 1522 1521 1520 1520 1519 1519 1518 1517 1517 1516 1515 1514 1514 1513 1512
1506 1507 1508 1509 1510 1512 1515 1518 1520 1523 1526 1527 1528 1529 1530 1532 1533 1535 1536 1536 1537 1537 1537 1537 1536 1537 1537 1537 1536 1537 1537 1538 1538 1538 1538 1538 1538 1537 1537 1536 1536 1535 1535 1535 1534 1534 1534 1534 1534 1533 1533 1532 1532 1532 1532 1531 1531 1530 1530 1529 1528 1528 1528 1527 1527 1526 1526 1525 1524 1523 1522 1522 1521 1521 1520 1520 1519 1519 1518 1517 1516 1516 1515 1514 1513
1503 1504 1505 1506 1507 1509 1512 1515 1517 1521 1523 1524 1525 1526 1527 1529 1531 1532 1534 1535 1535 1535 1536 1535 1535 1536 1536 1536 1536 1537 1537 1538 1538 1538 1538 1538 1538 1537 1536 1536 1536 1535 1535 1535 1535 1535 1534 1534 1534 1534 1533 1533 1533 1532 1532 1532 1532 1531 1530 1529 1529 1528 1528 1528 1527 1527 1526 1525 1525 1524 1523 1523 1522 1522 1522 1521 1521 1520 1519 1519 1518 1517 1517 1516 1515
1500 1501 1502 1503 1505 1506 1509 1512 1515 1517 1519 1520 1521 1523 1524 1526 1528 1530 1532 1533 1533 1534 1534 1534 1534 1535 1535 1536 1536 1537 1537 1537 1538 1538 1538 1538 1538 1537 1537 1536 1536 1536 1536 1535 1535 1535 1535 1535 1534 1534 1534 1534 1533 1533 1532 1533 1532 1532 1531 1530 1530 1529 1529 1528 1528 1528 1527 1526 1526 1525 1525 1524 1524 1524 1523 1523 1522 1522 1521 1520 1520 1519 1518 1518 1517
1497 1498 1499 1501 1502 1504 1506 1509 1512 1514 1516 1517 1518 1520 1522 1524 1527 1528 1530 1531 1532 1532 1533 1533 1533 1534 1535 1535 1536 1536 1537 1537 1537 1538 1538 1538 1538 1537 1537 1537 1536 1536 1536 1536 1536 1536 1536 1535 1535 1535 1535 1534 1534 1533 1533 1533 1533 1532 1532 1531 1531 1530 1530 1530 1529 1529 1528 1528 1527 1527 1527 1526 1526 1525 1525 1524 1524 1523 1522 1522 1521 1520 1520 1519 1518
1495 1496 1497 1499 1500 1501 1503 1506 1508 1511 1513 1514 1515 1518 1521 1523 1525 1527 1528 1530 1530 1531 1531 1532 1532 1533 1534 1534 1535 1536 1536 1537 1537 1538 1538 1538 1538 1537 1537 1537 1537 1537 1536 1536 1537 1537 1536 1536 1536 1535 1535 1535 1534 1534 1533 1534 1534 1533 1533 1532 1532 1532 1531 1531 1531 1530 1530 1529 1529 1529 1528 1528 1527 1527 1527 1526 1525 1525 1524 1523 1523 1522 1521 1520 1519
1492 1493 1495 1497 1498 1499 1501 1503 1505 1507 1509 1511 1513 1516 1518 1520 1522 1525 1527 1528 1529 1529 1530 1530 1531 1531 1532 1533 1534 1535 1536 1536 1537 1537 1537 1537 1537 1537 1537 1537 1537 1537 1537 1537 1537 1537 1537 1536 1536 1536 1536 1535 1535 1534 1534 1534 1534 1534 1534 1533 1533 1533 1533 1532 1532 1532 1531 1531 1530 1530 1530 1529 1529 1528 1528 1528 1527 1526 1526 1525 1524 1523 1522 1521 1520
1490 1491 1493 1495 1496 1497 1499 1501 1503 1504 1506 1509 1510 1512 1515 1518 1521 1523 1525 1526 1527 1528 1528 1529 1529 1530 1531 1532 1533 1534 1535 1536 1536 1536 1537 1537 1537 1537 1537 1537 1537 1537 1538 1537 1537 1537 1537 1537 1537 1537 1536 1536 1536 1535 1535 1535 1535 1535 1534 1534 1534 1534 1534 1533 1533 1533 1532 1532 1531 1531 1531 1530 1530 1529 1529 1529 1528 1528 1527 1526 1526 1525 1523 1522 1521
1488 1490 1492 1494 1494 1496 1497 1499 1501 1502 1504 1507 1508 1510 1514 1518 1520 1522 1524 1525 1526 1526 1526 1527 1528 1528 1529 1530 1532 1533 1534 1535 1535 1536 1536 1536 1537 1537 1537 1537 1537 1538 1538 1538 1538 1537 1537 1537 1537 1537 1537 1536 1536 1536 1536 1536 1535 1535 1535 1535 1535 1535 1535 1534 1534 1534 1533 1533 1533 1532 1532 1531 1531 1530 1530 1530 1529 1529 1528 1528 1527 1526 1525 1524 1523
1487 1488 1490 1492 1493 1494 1495 1497 1499 1501 1502 1504 1505 1508 1513 1516 1518 1520 1522 1523 1524 1524 1524 1525 1526 1527 1528 1529 1530 1531 1533 1534 1534 1535 1535 1536 1536 1537 1537 1537 1538 1538 1538 1538 1538 1538 1537 1537 1537 1537 1537 1537 1537 1537 1537 1536 1536 1536 1536 1536 1535 1535 1535 1535 1535 1534 1534 1534 1534 1533 1533 1532 1532 1531 1531 1530 1530 1530 1529 1528 1527 1527 1526 1525 1524
1487 1488 1489 1491 1492 1493 1494 1495 1497 1498 1499 1501 1503 1506 1511 1514 1516 1518 1520 1521 1522 1522 1522 1523 1524 1525 1526 1527 1529 1530 1531 1532 1533 1534 1535 1535 1536 1536 1537 1537 1538 1538 1538 1538 1538 1538 1538 1538 1538 1538 1538 1538 1537 1537 1537 1537 1537 1536 1536 1536 1536 1536 1536 1535 1535 1535 1535 1534 1534 1534 1534 1533 1533 1532 1532 1531 1531 1531 1530 1529 1528 1528 1527 1525 1524
1487 1488 1489 1490 1491 1492 1493 1494 1495 1496 1497 1499 1501 1505 1509 1512 1514 1516 1518 1518 1519 1520 1520 1521 1522 1523 1525 1526 1527 1529 1530 1531 1532 1533 1534 1534 1535 1536 1536 1537 1537 1538 1538 1538 1539 1538 1538 1538 1538 1538 1538 1538 1538 1537 1537 1537 1537 1537 1537 1536 1536 1536 1535 1535 1535 1535 1535 1535 1534 1534 1534 1534 1533 1533 1533 1533 1532 1532 1531 1530 1530 1529 1528 1527 1526
1486 1487 1488 1489 1490 1491 1491 1492 1493 1494 1495 1497 1500 1503 1507 1509 1511 1514 1515 1516 1517 1517 1518 1519 1521 1522 1523 1524 1526 1527 1529 1530 1531 1532 1533 1533 1534 1535 1536 1536 1537 1537 1538 1538 1538 1539 1539 1539 1538 1538 1538 1538 1538 1538 1537 1537 1537 1537 1537 1536 1536 1536 1535 1535 1535 1535 1535 1535 1535 1535 1535 1534 1534 1534 1534 1534 1533 1533 1532 1531 1531 1530 1529 1527 1527
1486 1487 1487 1488 1489 1489 1490 1490 1491 1492 1493 1495 1498 1501 1504 1507 1509 1511 1512 1513 1514 1515 1517 1518 1519 1521 1522 1523 1524 1526 1527 1528 1529 1530 1531 1532 1533 1534 1535 1535 1536 1537 1537 1538 1538 1538 1539 1539 1539 1538 1538 1538 1538 1538 1538 1538 1537 1537 1537 1537 1536 1536 1536 1536 1535 1535 1535 1535 1535 1535 1535 1535 1535 1535 1535 1534 1534 1533 1532 1532 1531 1530 1529 1528 1527
1486 1486 1487 1487 1488 1488 1488 1489 1489 1490 1491 1493 1496 1499 1502 1504 1507 1508 1509 1511 1513 1514 1515 1516 1517 1519 1520 1521 1522 1524 1525 1527 1528 1529 1530 1531 1532 1533 1534 1534 1535 1536 1536 1537 1537 1538 1538 1538 1538 1538 1538 1538 1538 1538 1538 1537 1537 1537 1537 1537 1536 1536 1536 1536 1535 1535 1535 1535 1535 1536 1536 1535 1535 1535 1535 1534 1534 1533 1533 1532 1532 1531 1530 1529 1528
1486 1486 1486 1487 1487 1487 1487 1488 1488 1489 1490 1492 1494 1497 1499 1502 1504 1505 1507 1509 1511 1512 1513 1514 1515 1517 1518 1519 1521 1523 1524 1525 1526 1527 1528 1529 1530 1531 1532 1533 1534 1535 1535 1536 1536 1537 1538 1538 1538 1538 1538 1538 1538 1538 1537 1537 1537 1537 1536 1536 1536 1536 1536 1536 1536 1535 1535 1535 1536 1536 1536 1536 1536 1536 1535 1535 1534 1534 1533 1533 1532 1531 1530 1530 1529
1485 1485 1485 1486 1486 1486 1486 1487 1487 1488 1489 1490 1493 1495 1497 1499 1501 1503 1506 1508 1509 1510 1511 1512 1514 1515 1516 1518 1519 1521 1523 1524 1525 1526 1527 1528 1529 1530 1531 1532 1532 1533 1534 1535 1535 1536 1536 1537 1537 1537 1537 1537 1537 1537 1537 1537 1537 1537 1536 1536 1536 1536 1536 1536 1536 1536 1536 1536 1536 1536 1536 1536 1536 1536 1535 1535 1534 1534 1534 1533 1532 1532 1531 1530 1529
1485 1485 1485 1485 1485 1485 1485 1486 1487 1487 1488 1489 1491 1493 1495 1497 1498 1501 1504 1505 1506 1508 1509 1510 1511 1513 1514 1516 1517 1519 1521 1522 1523 1525 1526 1527 1527 1528 1529 1530 1531 1532 1532 1533 1534 1534 1535 1536 1536 1536 1537 1537 1537 1537 1537 1537 1537 1536 1536 1536 1536 1536 1536 1536 1536 1536 1536 1536 1536 1536 1536 1536 1536 1536 1536 1535 1535 1534 1534 1533 1532 1532 1531 1530 1529
1484 1484 1484 1484 1484 1484 1484 1485 1485 1486 1486 1487 1489 1491 1493 1494 1497 1499 1501 1502 1504 1505 1506 1508 1509 1511 1512 1514 1516 1517 1519 1521 1522 1523 1524 1525 1526 1527 1528 1528 1529 1530 1531 1532 1532 1533 1534 1534 1535 1535 1535 1536 1536 1536 1536 1536 1536 1536 1535 1535 1536 1536 1536 1536 1536 1536 1536 1536 1536 1536 1536 1536 1536 1536 1535 1535 1535 1534 1534 1533 1532 1532 1531 1530 1529
1483 1483 1483 1483 1483 1483 1483 1483 1483 1484 1484 1485 1487 1489 1490 1492 1495 1497 1498 1500 1501 1503 1504 1505 1507 1509 1510 1512 1514 1515 1517 1519 1520 1521 1522 1523 1524 1525 1526 1527 1528 1529 1529 1530 1531 1532 1532 1533 1533 1534 1534 1534 1535 1535 1535 1535 1535 1535 1535 1535 1535 1535 1535 1535 1536 1536 1536 1536 1535 1536 1536 1536 1536 1536 1535 1535 1534 1534 1533 1533 1532 1531 1531 1530 1529
1481 1481 1481 1481 1481 1481 1481 1481 1482 1482 1482 1484 1485 1486 1488 1490 1493 1495 1496 1497 1499 1500 1501 1503 1504 1506 1508 1509 1511 1513 1515 1516 1518 1519 1520 1521 1522 1523 1524 1525 1526 1527 1528 1529 1529 1530 1531 1531 1532 1533 1533 1533 1533 1533 1533 1534 1534 1534 1534 1534 1534 1534 1534 1535 1535 1535 1535 1535 1535 1535 1535 1535 1535 1535 1535 1534 1534 1533 1533 1532 1532 1531 1530 1529 1528
1478 1479 1479 1479 1479 1479 1479 1479 1480 1480 1481 1482 1483 1484 1486 1489 1491 1492 1494 1495 1496 1497 1498 1500 1502 1504 1505 1507 1508 1510 1512 1514 1515 1516 1518 1519 1520 1521 1522 1522 1524 1525 1526 1527 1528 1529 1529 1530 1531 1531 1531 1532 1532 1532 1532 1532 1532 1532 1533 1533 1533 1533 1533 1534 1534 1534 1534 1534 1535 1535 1535 1535 1535 1535 1534 1534 1533 1533 1532 1532 1531 1531 1530 1529 1528
1476 1476 1476 1476 1476 1477 1477 1477 1478 1478 1479 1480 1481 1483 1485 1486 1488 1490 1491 1492 1493 1494 1496 1497 1499 1501 1502 1504 1506 1508 1509 1511 1512 1514 1515 1517 1518 1519 1520 1521 1522 1523 1524 1526 1527 1527 1528 1529 1530 1530 1530 1530 1531 1531 1531 1531 1531 1531 1531 1532 1532 1532 1532 1533 1533 1533 1533 1534 1534 1534 1534 1534 1534 1534 1533 1533 1533 1532 1532 1531 1531 1530 1529 1528 1527
1473 1473 1473 1473 1473 1473 1474 1474 1475 1477 1478 1478 1479 1481 1483 1484 1486 1488 1488 1489 1490 1491 1493 1494 1496 1497 1499 1501 1503 1504 1506 1508 1509 1511 1513 1514 1515 1517 1518 1519 1520 1522 1523 1524 1525 1526 1527 1527 1528 1528 1529 1529 1529 1530 1530 1530 1530 1530 1530 1530 1531 1531 1531 1532 1532 1532 1532 1532 1533 1533 1533 1533 1533 1533 1533 1533 1532 1532 1532 1531 1530 1530 1529 1528 1527
1470 1470 1470 1470 1470 1470 1471 1471 1473 1474 1474 1475 1476 1478 1479 1481 1483 1484 1485 1486 1487 1488 1489 1490 1492 1493 1495 1497 1499 1501 1503 1504 1506 1508 1509 1511 1513 1514 1515 1516 1518 1519 1520 1521 1522 1523 1524 1525 1525 1526 1527 1527 1528 1528 1528 1529 1529 1529 1529 1529 1529 1530 1530 1531 1531 1531 1531 1531 1532 1532 1532 1532 1532 1532 1532 1532 1532 1531 1531 1530 1530 1529 1528 1527 1526